Location: Stull Observatory
(42.2506°N, 77.7903°W)
Time: 08:22:21
(UTC-04:00)

Okean O Rocket - Visible Passes

Search period start: 23 September 2014 00:00
Search period end: 03 October 2014 00:00
Orbit: 624 x 648 km, 98.0° (Epoch: 21 September)

Date Brightness Start Highest point End Pass type
(mag) Time Alt. Az. Time Alt. Az. Time Alt. Az.
23 Sep 4.7 03:09:56 10° ENE 03:10:24 11° ENE 03:10:24 11° ENE visible
23 Sep 2.4 04:44:47 10° N 04:47:54 40° NNW 04:47:54 40° NNW visible
24 Sep 4.2 03:31:12 10° NE 03:32:50 18° ENE 03:32:50 18° ENE visible
24 Sep 2.7 05:07:22 10° N 05:10:20 29° NW 05:10:20 29° NW visible
25 Sep 3.6 03:53:02 10° NNE 03:55:16 26° NE 03:55:16 26° NE visible
25 Sep 3.2 05:30:14 10° NNW 05:32:46 19° NW 05:32:46 19° NW visible
26 Sep 3.0 04:15:09 10° NNE 04:17:42 34° NNE 04:17:42 34° NNE visible
26 Sep 3.6 05:53:46 10° NW 05:55:12 12° WNW 05:55:12 12° WNW visible
27 Sep 2.7 04:37:28 10° N 04:40:08 36° N 04:40:08 36° N visible
28 Sep 4.5 03:24:11 10° NE 03:25:04 14° NE 03:25:04 14° NE visible
28 Sep 2.8 04:59:58 10° N 05:02:34 29° NNW 05:02:34 29° NNW visible
29 Sep 4.0 03:45:53 10° NNE 03:47:30 20° NE 03:47:30 20° NE visible
29 Sep 3.2 05:22:44 10° NNW 05:25:00 20° NW 05:25:00 20° NW visible
30 Sep 3.5 04:07:55 10° NNE 04:09:56 26° NNE 04:09:56 26° NNE visible
30 Sep 3.6 05:45:56 10° NNW 05:47:26 14° NW 05:47:26 14° NW visible
01 Oct 3.2 04:30:10 10° N 04:32:22 29° N 04:32:22 29° N visible
02 Oct 4.8 03:17:13 10° NE 03:17:17 10° NE 03:17:17 10° NE visible
02 Oct 3.1 04:52:36 10° N 04:54:47 26° NNW 04:54:47 26° NNW visible
